TimePDT,TemperatureF,Dew PointF,Humidity,Sea Level PressureIn,VisibilityMPH,Wind Direction,Wind SpeedMPH,Gust SpeedMPH,PrecipitationIn,Events,Conditions,WindDirDegrees,DateUTC
12:56 AM,36.0,8.1,31,29.99,10.0,Calm,Calm,-,N/A,,Clear,0,2013-03-18 07:56:00
1:56 AM,32.0,10.0,40,30.00,10.0,SE,6.9,-,N/A,,Clear,130,2013-03-18 08:56:00
2:56 AM,33.1,12.9,43,29.99,10.0,SSE,4.6,-,N/A,,Clear,150,2013-03-18 09:56:00
3:56 AM,30.9,8.1,38,29.99,10.0,SSE,6.9,-,N/A,,Clear,160,2013-03-18 10:56:00
4:56 AM,30.0,8.1,40,29.98,10.0,SSE,5.8,-,N/A,,Clear,160,2013-03-18 11:56:00
5:56 AM,28.9,7.0,40,30.00,10.0,SE,6.9,-,N/A,,Clear,140,2013-03-18 12:56:00
6:15 AM,30.2,6.8,37,30.10,10.0,SSE,5.8,-,N/A,,Partly Cloudy,160,2013-03-18 13:15:00
6:56 AM,28.0,8.1,43,30.01,10.0,South,6.9,-,N/A,,Partly Cloudy,180,2013-03-18 13:56:00
7:56 AM,33.1,12.9,43,30.01,10.0,South,3.5,-,N/A,,Partly Cloudy,170,2013-03-18 14:56:00
8:56 AM,42.1,12.0,29,30.02,10.0,Calm,Calm,-,N/A,,Scattered Clouds,0,2013-03-18 15:56:00
9:56 AM,48.0,17.1,29,30.03,10.0,Calm,Calm,-,N/A,,Scattered Clouds,0,2013-03-18 16:56:00
10:56 AM,54.0,15.1,22,30.02,10.0,Calm,Calm,-,N/A,,Scattered Clouds,0,2013-03-18 17:56:00
11:56 AM,55.9,15.1,20,30.01,10.0,Calm,Calm,-,N/A,,Mostly Cloudy,0,2013-03-18 18:56:00
12:56 PM,59.0,14.0,17,29.99,10.0,Variable,3.5,-,N/A,,Overcast,0,2013-03-18 19:56:00
1:56 PM,61.0,12.9,15,29.96,10.0,NNW,4.6,-,N/A,,Overcast,340,2013-03-18 20:56:00
2:56 PM,64.0,10.9,13,29.93,10.0,WNW,8.1,-,N/A,,Overcast,290,2013-03-18 21:56:00
3:56 PM,63.0,10.9,13,29.92,10.0,Calm,Calm,-,N/A,,Overcast,0,2013-03-18 22:56:00
4:56 PM,63.0,10.9,13,29.92,10.0,NE,9.2,-,N/A,,Overcast,40,2013-03-18 23:56:00
5:56 PM,61.0,10.0,13,29.90,10.0,ENE,11.5,-,N/A,,Overcast,60,2013-03-19 00:56:00
6:56 PM,57.9,9.0,14,29.91,10.0,ENE,3.5,-,N/A,,Overcast,60,2013-03-19 01:56:00
7:56 PM,57.0,9.0,15,29.92,10.0,Calm,Calm,-,N/A,,Overcast,0,2013-03-19 02:56:00
8:56 PM,54.0,10.9,18,29.94,10.0,WNW,4.6,-,N/A,,Overcast,300,2013-03-19 03:56:00
9:56 PM,54.0,12.0,19,29.96,10.0,NW,6.9,-,N/A,,Overcast,310,2013-03-19 04:56:00
10:56 PM,57.0,21.0,25,29.97,10.0,West,5.8,-,N/A,,Overcast,270,2013-03-19 05:56:00
11:56 PM,55.9,23.0,28,29.97,10.0,WNW,10.4,-,N/A,,Overcast,290,2013-03-19 06:56:00